• In Czech Republic
  • List of Countries
  • For 7 days
  • Water Temperature
  • Satellite Maps
  • Weather Map
  • Weather Widgets
  • user-avatar
    Login

    Hourly Weather Maaseik

    Today, 15 December, Friday

    Time Temperature Precipitation Wind Pressure Humidity
    00:00 +1°C° 0 mm 3 mps 740 mmHg 92%
    01:00 +1°C° 0 mm 3 mps 741 mmHg 92%
    02:00 +1°C° 0 mm 3 mps 741 mmHg 92%
    03:00 0°C° 0 mm 3 mps 741 mmHg 92%
    04:00 0°C° 0 mm 3 mps 741 mmHg 92%
    05:00 0°C° 0 mm 3 mps 742 mmHg 92%
    06:00 +1°C° 0 mm 2 mps 742 mmHg 92%
    07:00 +2°C° 0 mm 2 mps 742 mmHg 91%
    08:00 +2°C° 0 mm 2 mps 742 mmHg 90%
    09:00 +2°C° 0 mm 3 mps 743 mmHg 88%
    10:00 +2°C° 0 mm 3 mps 743 mmHg 86%
    11:00 +3°C° 0 mm 3 mps 743 mmHg 84%
    12:00 +4°C° 0 mm 3 mps 744 mmHg 82%
    13:00 +4°C° 0 mm 2 mps 744 mmHg 85%
    14:00 +4°C° 0 mm 2 mps 744 mmHg 87%
    15:00 +5°C° 0 mm 1 mps 745 mmHg 89%
    16:00 +4°C° 0 mm 1 mps 745 mmHg 90%
    17:00 +4°C° 0 mm 1 mps 746 mmHg 91%
    18:00 +2°C° 0 mm 0 mps 746 mmHg 92%
    19:00 +2°C° 0 mm 0 mps 747 mmHg 92%
    20:00 +3°C° 0 mm 1 mps 748 mmHg 93%
    21:00 +3°C° 0 mm 1 mps 748 mmHg 93%
    22:00 +2°C° 0 mm 1 mps 749 mmHg 94%
    23:00 +2°C° 0 mm 1 mps 750 mmHg 94%

    Tomorrow, 16 December, Saturday

    Time Temperature Precipitation Wind Pressure Humidity
    00:00 +2°C° 0 mm 1 mps 750 mmHg 95%
    01:00 +2°C° 0 mm 1 mps 751 mmHg 95%
    02:00 +1°C° 0 mm 2 mps 751 mmHg 95%
    03:00 +1°C° 0 mm 2 mps 752 mmHg 95%
    04:00 +1°C° 0 mm 2 mps 752 mmHg 95%
    05:00 +1°C° 0 mm 2 mps 753 mmHg 95%
    06:00 +1°C° 0 mm 2 mps 753 mmHg 94%
    07:00 +1°C° 0.1 mm 2 mps 754 mmHg 93%
    08:00 +1°C° 0.1 mm 3 mps 755 mmHg 92%
    09:00 +1°C° 0.1 mm 3 mps 756 mmHg 90%
    10:00 +2°C° 0.2 mm 3 mps 756 mmHg 85%
    11:00 +3°C° 0.2 mm 4 mps 756 mmHg 81%
    12:00 +4°C° 0.2 mm 4 mps 756 mmHg 76%
    13:00 +4°C° 0.2 mm 4 mps 757 mmHg 77%
    14:00 +3°C° 0.2 mm 3 mps 757 mmHg 79%
    15:00 +3°C° 0.2 mm 3 mps 757 mmHg 81%
    16:00 +2°C° 0.1 mm 3 mps 758 mmHg 82%
    17:00 +2°C° 0.1 mm 3 mps 759 mmHg 84%
    18:00 +1°C° 0.1 mm 3 mps 759 mmHg 85%
    19:00 +1°C° 0.1 mm 3 mps 760 mmHg 87%
    20:00 +1°C° 0.1 mm 3 mps 760 mmHg 88%
    21:00 +1°C° 0.1 mm 3 mps 761 mmHg 89%
    22:00 +1°C° 0.1 mm 3 mps 761 mmHg 89%
    23:00 +1°C° 0.1 mm 3 mps 762 mmHg 90%

    Day after tomorrow, 17 December, Sunday

    Time Temperature Precipitation Wind Pressure Humidity
    00:00 +1°C° 0.1 mm 3 mps 762 mmHg 91%
    01:00 +1°C° 0.1 mm 3 mps 762 mmHg 91%
    02:00 +1°C° 0.1 mm 3 mps 763 mmHg 91%
    03:00 +1°C° 0.1 mm 3 mps 763 mmHg 91%
    04:00 0°C° 0 mm 3 mps 764 mmHg 91%
    05:00 0°C° 0 mm 3 mps 764 mmHg 91%
    06:00 0°C° 0 mm 3 mps 764 mmHg 91%
    07:00 +1°C° 0 mm 3 mps 765 mmHg 91%
    08:00 +1°C° 0 mm 3 mps 766 mmHg 91%
    09:00 +1°C° 0 mm 3 mps 766 mmHg 90%
    10:00 +2°C° 0.1 mm 3 mps 766 mmHg 88%
    11:00 +3°C° 0.1 mm 4 mps 766 mmHg 86%
    12:00 +3°C° 0.1 mm 4 mps 766 mmHg 84%
    13:00 +3°C° 0 mm 4 mps 766 mmHg 84%
    14:00 +3°C° 0 mm 4 mps 766 mmHg 85%
    15:00 +1°C° 0 mm 4 mps 766 mmHg 85%
    16:00 +1°C° 0 mm 4 mps 767 mmHg 85%
    17:00 +1°C° 0 mm 4 mps 767 mmHg 85%
    18:00 0°C° 0 mm 5 mps 767 mmHg 85%
    19:00 +1°C° 0 mm 5 mps 767 mmHg 85%
    20:00 +1°C° 0 mm 6 mps 766 mmHg 84%
    21:00 +1°C° 0 mm 6 mps 766 mmHg 84%
    22:00 +2°C° 0.4 mm 7 mps 765 mmHg 86%
    23:00 +2°C° 0.4 mm 7 mps 765 mmHg 87%

    18 December, Monday

    Time Temperature Precipitation Wind Pressure Humidity
    00:00 +2°C° 0.4 mm 8 mps 764 mmHg 89%
    01:00 +4°C° 0.7 mm 8 mps 763 mmHg 90%
    02:00 +4°C° 0.7 mm 7 mps 763 mmHg 91%
    03:00 +5°C° 0.7 mm 7 mps 763 mmHg 92%
    04:00 +5°C° 0.3 mm 6 mps 763 mmHg 90%
    05:00 +5°C° 0.3 mm 5 mps 763 mmHg 89%
    06:00 +5°C° 0.3 mm 4 mps 764 mmHg 88%
    07:00 +5°C° 0 mm 3 mps 764 mmHg 87%
    08:00 +4°C° 0 mm 3 mps 765 mmHg 86%
    09:00 +4°C° 0 mm 3 mps 765 mmHg 85%
    10:00 +4°C° 0 mm 4 mps 766 mmHg 82%
    11:00 +5°C° 0 mm 4 mps 766 mmHg 79%
    12:00 +6°C° 0 mm 5 mps 766 mmHg 75%
    13:00 +6°C° 0.1 mm 4 mps 767 mmHg 77%
    14:00 +5°C° 0.1 mm 4 mps 767 mmHg 78%
    15:00 +5°C° 0.1 mm 3 mps 767 mmHg 80%
    16:00 +4°C° 0 mm 3 mps 768 mmHg 83%
    17:00 +4°C° 0 mm 3 mps 768 mmHg 85%
    18:00 +4°C° 0 mm 2 mps 769 mmHg 88%
    19:00 +4°C° 0 mm 2 mps 770 mmHg 90%
    20:00 +3°C° 0 mm 2 mps 770 mmHg 91%
    21:00 +3°C° 0 mm 2 mps 771 mmHg 92%
    22:00 +3°C° 0 mm 2 mps 771 mmHg 93%
    23:00 +3°C° 0 mm 2 mps 771 mmHg 93%

    19 December, Tuesday

    Time Temperature Precipitation Wind Pressure Humidity
    00:00 +3°C° 0 mm 2 mps 771 mmHg 94%
    01:00 +3°C° 0 mm 2 mps 771 mmHg 94%
    02:00 +2°C° 0 mm 2 mps 772 mmHg 95%
    03:00 +2°C° 0 mm 2 mps 772 mmHg 95%
    04:00 +2°C° 0 mm 2 mps 772 mmHg 95%
    05:00 +2°C° 0 mm 2 mps 772 mmHg 95%
    06:00 +2°C° 0 mm 2 mps 772 mmHg 95%
    07:00 +3°C° 0 mm 2 mps 773 mmHg 93%
    08:00 +3°C° 0 mm 2 mps 773 mmHg 92%
    09:00 +2°C° 0 mm 3 mps 773 mmHg 91%
    10:00 +3°C° 0 mm 3 mps 773 mmHg 87%
    11:00 +4°C° 0 mm 3 mps 773 mmHg 83%
    12:00 +5°C° 0 mm 4 mps 773 mmHg 80%
    13:00 +5°C° 0 mm 3 mps 772 mmHg 81%
    14:00 +4°C° 0 mm 3 mps 772 mmHg 83%
    15:00 +5°C° 0 mm 2 mps 772 mmHg 85%
    16:00 +5°C° 0.1 mm 2 mps 772 mmHg 86%
    17:00 +4°C° 0.1 mm 3 mps 772 mmHg 86%
    18:00 +4°C° 0.1 mm 3 mps 773 mmHg 87%
    19:00 +4°C° 0.1 mm 3 mps 773 mmHg 88%
    20:00 +5°C° 0.1 mm 3 mps 773 mmHg 89%
    21:00 +5°C° 0.1 mm 3 mps 773 mmHg 91%
    22:00 +5°C° 0 mm 3 mps 773 mmHg 92%
    23:00 +5°C° 0 mm 3 mps 772 mmHg 93%

    20 December, Wednesday

    Time Temperature Precipitation Wind Pressure Humidity
    00:00 +5°C° 0 mm 3 mps 772 mmHg 94%
    01:00 +6°C° 0.1 mm 2 mps 772 mmHg 95%
    02:00 +6°C° 0.1 mm 2 mps 772 mmHg 96%
    03:00 +7°C° 0.1 mm 2 mps 773 mmHg 97%
    04:00 +7°C° 0.2 mm 2 mps 773 mmHg 97%
    05:00 +7°C° 0.2 mm 2 mps 773 mmHg 97%
    06:00 +7°C° 0.2 mm 2 mps 773 mmHg 98%
    07:00 +8°C° 0.1 mm 2 mps 773 mmHg 98%
    08:00 +8°C° 0.1 mm 2 mps 773 mmHg 98%
    09:00 +8°C° 0.1 mm 2 mps 774 mmHg 98%
    10:00 +9°C° 0 mm 2 mps 774 mmHg 97%
    11:00 +9°C° 0 mm 2 mps 774 mmHg 97%
    12:00 +9°C° 0 mm 3 mps 774 mmHg 96%
    13:00 +9°C° 0 mm 3 mps 774 mmHg 96%
    14:00 +9°C° 0 mm 2 mps 774 mmHg 97%
    15:00 +9°C° 0 mm 2 mps 774 mmHg 97%
    16:00 +9°C° 0 mm 2 mps 774 mmHg 97%
    17:00 +9°C° 0 mm 2 mps 774 mmHg 97%
    18:00 +9°C° 0 mm 2 mps 775 mmHg 97%
    19:00 +9°C° 0 mm 3 mps 775 mmHg 97%
    20:00 +9°C° 0 mm 3 mps 775 mmHg 97%
    21:00 +9°C° 0 mm 3 mps 775 mmHg 97%
    22:00 +9°C° 0 mm 3 mps 775 mmHg 97%
    23:00 +9°C° 0 mm 3 mps 775 mmHg 97%
    Show more